Time,TemperatureF,DewpointF,PressureIn,WindDirection,WindDirectionDegrees,WindSpeedMPH,WindSpeedGustMPH,Humidity,HourlyPrecipIn,Conditions,Clouds,dailyrainin,SoftwareType,DateUTC
2013-01-09 00:00:00,46.3,38.0,29.72,WSW,253,14.3,21.3,73,0.00,,---,0.00,VWS V12.08,2013-01-09 05:00:00,
2013-01-09 00:03:00,46.6,38.0,29.71,West,276,17.2,18.0,72,0.00,,---,0.00,VWS V12.08,2013-01-09 05:03:00,
2013-01-09 00:08:00,46.6,38.0,29.71,West,276,17.2,18.0,72,0.00,,---,0.00,VWS V12.08,2013-01-09 05:08:00,
2013-01-09 00:13:00,46.6,38.0,29.71,West,276,17.2,18.0,72,0.00,,---,0.00,VWS V12.08,2013-01-09 05:13:00,
2013-01-09 00:18:00,46.6,38.0,29.71,West,276,17.2,18.0,72,0.00,,---,0.00,VWS V12.08,2013-01-09 05:18:00,
2013-01-09 00:23:00,46.6,38.0,29.71,West,276,17.2,18.0,72,0.00,,---,0.00,VWS V12.08,2013-01-09 05:23:00,
2013-01-09 00:28:00,46.6,38.0,29.71,West,276,17.2,18.0,72,0.00,,---,0.00,VWS V12.08,2013-01-09 05:28:00,
2013-01-09 00:33:00,32.5,32.5,29.58,WNW,300,9.3,17.1,100,0.00,,---,0.00,VWS V12.08,2013-01-09 05:33:00,
2013-01-09 00:38:00,46.6,38.0,29.71,West,276,17.2,18.0,72,0.00,,---,0.00,VWS V12.08,2013-01-09 05:38:00,
2013-01-09 00:43:00,46.6,38.0,29.71,West,276,17.2,18.0,72,0.00,,---,0.00,VWS V12.08,2013-01-09 05:43:00,
2013-01-09 00:48:00,46.6,38.0,29.71,West,276,17.2,18.0,72,0.00,,---,0.00,VWS V12.08,2013-01-09 05:48:00,
2013-01-09 00:53:00,46.6,38.0,29.71,West,276,17.2,18.0,72,0.00,,---,0.00,VWS V12.08,2013-01-09 05:53:00,
2013-01-09 00:58:00,46.6,38.0,29.71,West,276,17.2,18.0,72,0.00,,---,0.00,VWS V12.08,2013-01-09 05:58:00,
2013-01-09 01:03:00,46.6,38.0,29.71,West,276,17.2,18.0,72,0.00,,---,0.00,VWS V12.08,2013-01-09 06:03:00,
2013-01-09 01:08:00,46.6,38.0,29.71,West,276,17.2,18.0,72,0.00,,---,0.00,VWS V12.08,2013-01-09 06:08:00,
2013-01-09 01:13:00,46.6,38.0,29.71,West,276,17.2,18.0,72,0.00,,---,0.00,VWS V12.08,2013-01-09 06:13:00,
2013-01-09 01:18:00,46.6,38.0,29.71,West,276,17.2,18.0,72,0.00,,---,0.00,VWS V12.08,2013-01-09 06:18:00,
2013-01-09 01:23:00,46.6,38.0,29.71,West,276,17.2,18.0,72,0.00,,---,0.00,VWS V12.08,2013-01-09 06:23:00,
2013-01-09 01:28:00,46.6,38.0,29.71,West,276,17.2,18.0,72,0.00,,---,0.00,VWS V12.08,2013-01-09 06:28:00,
2013-01-09 01:33:00,46.6,38.0,29.71,West,276,17.2,18.0,72,0.00,,---,0.00,VWS V12.08,2013-01-09 06:33:00,
2013-01-09 01:38:00,46.6,38.0,29.71,West,276,17.2,18.0,72,0.00,,---,0.00,VWS V12.08,2013-01-09 06:38:00,
2013-01-09 01:43:00,46.6,38.0,29.71,West,276,17.2,18.0,72,0.00,,---,0.00,VWS V12.08,2013-01-09 06:43:00,
2013-01-09 01:48:00,46.6,38.0,29.71,West,276,17.2,18.0,72,0.00,,---,0.00,VWS V12.08,2013-01-09 06:48:00,
2013-01-09 01:53:00,46.6,38.0,29.71,West,276,17.2,18.0,72,0.00,,---,0.00,VWS V12.08,2013-01-09 06:53:00,
2013-01-09 01:58:00,46.6,38.0,29.71,West,276,17.2,18.0,72,0.00,,---,0.00,VWS V12.08,2013-01-09 06:58:00,
2013-01-09 02:03:00,46.6,38.0,29.71,West,276,17.2,18.0,72,0.00,,---,0.00,VWS V12.08,2013-01-09 07:03:00,
2013-01-09 02:08:00,46.6,38.0,29.71,West,276,17.2,18.0,72,0.00,,---,0.00,VWS V12.08,2013-01-09 07:08:00,
2013-01-09 02:13:00,46.6,38.0,29.71,West,276,17.2,18.0,72,0.00,,---,0.00,VWS V12.08,2013-01-09 07:13:00,
2013-01-09 02:18:00,46.6,38.0,29.71,West,276,17.2,18.0,72,0.00,,---,0.00,VWS V12.08,2013-01-09 07:18:00,
2013-01-09 02:23:00,46.6,38.0,29.71,West,276,17.2,18.0,72,0.00,,---,0.00,VWS V12.08,2013-01-09 07:23:00,
2013-01-09 02:28:00,46.6,38.0,29.71,West,276,17.2,18.0,72,0.00,,---,0.00,VWS V12.08,2013-01-09 07:28:00,
2013-01-09 02:33:00,46.6,38.0,29.71,West,276,17.2,18.0,72,0.00,,---,0.00,VWS V12.08,2013-01-09 07:33:00,
2013-01-09 02:38:00,46.6,38.0,29.71,West,276,17.2,18.0,72,0.00,,---,0.00,VWS V12.08,2013-01-09 07:38:00,
2013-01-09 02:43:00,46.6,38.0,29.71,West,276,17.2,18.0,72,0.00,,---,0.00,VWS V12.08,2013-01-09 07:43:00,
2013-01-09 02:48:00,46.6,38.0,29.71,West,276,17.2,18.0,72,0.00,,---,0.00,VWS V12.08,2013-01-09 07:48:00,
2013-01-09 02:53:00,46.6,38.0,29.71,West,276,17.2,18.0,72,0.00,,---,0.00,VWS V12.08,2013-01-09 07:53:00,
2013-01-09 02:58:00,46.6,38.0,29.71,West,276,17.2,18.0,72,0.00,,---,0.00,VWS V12.08,2013-01-09 07:58:00,
2013-01-09 03:03:00,46.6,38.0,29.71,West,276,17.2,18.0,72,0.00,,---,0.00,VWS V12.08,2013-01-09 08:03:00,
2013-01-09 03:08:00,46.6,38.0,29.71,West,276,17.2,18.0,72,0.00,,---,0.00,VWS V12.08,2013-01-09 08:08:00,
2013-01-09 03:13:00,46.6,38.0,29.71,West,276,17.2,18.0,72,0.00,,---,0.00,VWS V12.08,2013-01-09 08:13:00,
2013-01-09 03:18:00,46.6,38.0,29.71,West,276,17.2,18.0,72,0.00,,---,0.00,VWS V12.08,2013-01-09 08:18:00,
2013-01-09 03:23:00,46.6,38.0,29.71,West,276,17.2,18.0,72,0.00,,---,0.00,VWS V12.08,2013-01-09 08:23:00,
2013-01-09 03:28:00,46.6,38.0,29.71,West,276,17.2,18.0,72,0.00,,---,0.00,VWS V12.08,2013-01-09 08:28:00,
2013-01-09 03:33:00,46.6,38.0,29.71,West,276,17.2,18.0,72,0.00,,---,0.00,VWS V12.08,2013-01-09 08:33:00,
2013-01-09 03:38:00,46.6,38.0,29.71,West,276,17.2,18.0,72,0.00,,---,0.00,VWS V12.08,2013-01-09 08:38:00,
2013-01-09 03:43:00,46.6,38.0,29.71,West,276,17.2,18.0,72,0.00,,---,0.00,VWS V12.08,2013-01-09 08:43:00,
2013-01-09 03:48:00,46.6,38.0,29.71,West,276,17.2,18.0,72,0.00,,---,0.00,VWS V12.08,2013-01-09 08:48:00,
2013-01-09 03:53:00,46.6,38.0,29.71,West,276,17.2,18.0,72,0.00,,---,0.00,VWS V12.08,2013-01-09 08:53:00,
2013-01-09 03:58:00,46.6,38.0,29.71,West,276,17.2,18.0,72,0.00,,---,0.00,VWS V12.08,2013-01-09 08:58:00,
2013-01-09 04:03:00,33.4,31.8,30.30,NE,38,0.0,0.0,94,0.00,,---,0.00,VWS V12.08,2013-01-09 09:03:00,
2013-01-09 04:08:00,44.5,38.0,29.74,WNW,298,11.1,15.2,78,0.00,,---,0.00,VWS V12.08,2013-01-09 09:08:00,
2013-01-09 04:13:00,45.2,38.5,29.73,WNW,283,10.8,19.6,77,0.00,,---,0.00,VWS V12.08,2013-01-09 09:13:00,
2013-01-09 04:18:00,46.6,38.0,29.71,West,276,17.2,18.0,72,0.00,,---,0.00,VWS V12.08,2013-01-09 09:18:00,
2013-01-09 04:23:00,46.6,38.0,29.71,West,276,17.2,18.0,72,0.00,,---,0.00,VWS V12.08,2013-01-09 09:23:00,
2013-01-09 04:28:00,46.6,38.0,29.71,West,276,17.2,18.0,72,0.00,,---,0.00,VWS V12.08,2013-01-09 09:28:00,
2013-01-09 04:33:00,46.6,38.0,29.71,West,276,17.2,18.0,72,0.00,,---,0.00,VWS V12.08,2013-01-09 09:33:00,
2013-01-09 04:38:00,46.6,38.0,29.71,West,276,17.2,18.0,72,0.00,,---,0.00,VWS V12.08,2013-01-09 09:38:00,
2013-01-09 04:43:00,46.6,38.0,29.71,West,276,17.2,18.0,72,0.00,,---,0.00,VWS V12.08,2013-01-09 09:43:00,
2013-01-09 04:48:00,46.6,38.0,29.71,West,276,17.2,18.0,72,0.00,,---,0.00,VWS V12.08,2013-01-09 09:48:00,
2013-01-09 04:53:00,46.6,38.0,29.71,West,276,17.2,18.0,72,0.00,,---,0.00,VWS V12.08,2013-01-09 09:53:00,
2013-01-09 04:58:00,46.6,38.0,29.71,West,276,17.2,18.0,72,0.00,,---,0.00,VWS V12.08,2013-01-09 09:58:00,
2013-01-09 05:03:00,46.6,38.0,29.71,West,276,17.2,18.0,72,0.00,,---,0.00,VWS V12.08,2013-01-09 10:03:00,
2013-01-09 05:08:00,46.6,38.0,29.71,West,276,17.2,18.0,72,0.00,,---,0.00,VWS V12.08,2013-01-09 10:08:00,
2013-01-09 05:13:00,46.6,38.0,29.71,West,276,17.2,18.0,72,0.00,,---,0.00,VWS V12.08,2013-01-09 10:13:00,
2013-01-09 05:18:00,46.6,38.0,29.71,West,276,17.2,18.0,72,0.00,,---,0.00,VWS V12.08,2013-01-09 10:18:00,
2013-01-09 05:23:00,46.6,38.0,29.71,West,276,17.2,18.0,72,0.00,,---,0.00,VWS V12.08,2013-01-09 10:23:00,
2013-01-09 05:28:00,46.6,38.0,29.71,West,276,17.2,18.0,72,0.00,,---,0.00,VWS V12.08,2013-01-09 10:28:00,
2013-01-09 05:33:00,46.6,38.0,29.71,West,276,17.2,18.0,72,0.00,,---,0.00,VWS V12.08,2013-01-09 10:33:00,
2013-01-09 05:38:00,46.6,38.0,29.71,West,276,17.2,18.0,72,0.00,,---,0.00,VWS V12.08,2013-01-09 10:38:00,
2013-01-09 05:43:00,46.6,38.0,29.71,West,276,17.2,18.0,72,0.00,,---,0.00,VWS V12.08,2013-01-09 10:43:00,
2013-01-09 05:48:00,46.6,38.0,29.71,West,276,17.2,18.0,72,0.00,,---,0.00,VWS V12.08,2013-01-09 10:48:00,
2013-01-09 05:53:00,46.6,38.0,29.71,West,276,17.2,18.0,72,0.00,,---,0.00,VWS V12.08,2013-01-09 10:53:00,
2013-01-09 05:58:00,46.6,38.0,29.71,West,276,17.2,18.0,72,0.00,,---,0.00,VWS V12.08,2013-01-09 10:58:00,
2013-01-09 06:03:00,46.6,38.0,29.71,West,276,17.2,18.0,72,0.00,,---,0.00,VWS V12.08,2013-01-09 11:03:00,
2013-01-09 06:08:00,46.6,38.0,29.71,West,276,17.2,18.0,72,0.00,,---,0.00,VWS V12.08,2013-01-09 11:08:00,
2013-01-09 06:13:00,46.6,38.0,29.71,West,276,17.2,18.0,72,0.00,,---,0.00,VWS V12.08,2013-01-09 11:13:00,
2013-01-09 06:18:00,46.6,38.0,29.71,West,276,17.2,18.0,72,0.00,,---,0.00,VWS V12.08,2013-01-09 11:18:00,
2013-01-09 06:23:00,46.6,38.0,29.71,West,276,17.2,18.0,72,0.00,,---,0.00,VWS V12.08,2013-01-09 11:23:00,
2013-01-09 06:28:00,46.6,38.0,29.71,West,276,17.2,18.0,72,0.00,,---,0.00,VWS V12.08,2013-01-09 11:28:00,
2013-01-09 06:33:00,46.6,38.0,29.71,West,276,17.2,18.0,72,0.00,,---,0.00,VWS V12.08,2013-01-09 11:33:00,
2013-01-09 06:38:00,46.6,38.0,29.71,West,276,17.2,18.0,72,0.00,,---,0.00,VWS V12.08,2013-01-09 11:38:00,
2013-01-09 06:43:00,46.6,38.0,29.71,West,276,17.2,18.0,72,0.00,,---,0.00,VWS V12.08,2013-01-09 11:43:00,
2013-01-09 06:48:00,46.6,38.0,29.71,West,276,17.2,18.0,72,0.00,,---,0.00,VWS V12.08,2013-01-09 11:48:00,
2013-01-09 06:53:00,46.6,38.0,29.71,West,276,17.2,18.0,72,0.00,,---,0.00,VWS V12.08,2013-01-09 11:53:00,
2013-01-09 06:58:00,46.6,38.0,29.71,West,276,17.2,18.0,72,0.00,,---,0.00,VWS V12.08,2013-01-09 11:58:00,
2013-01-09 07:03:00,33.4,31.8,30.30,NE,38,0.0,0.0,94,0.00,,---,0.00,VWS V12.08,2013-01-09 12:03:00,
2013-01-09 07:08:00,46.6,38.0,29.71,West,276,17.2,18.0,72,0.00,,---,0.00,VWS V12.08,2013-01-09 12:08:00,
2013-01-09 19:01:00,47.9,42.9,30.15,West,269,4.1,4.1,83,0.09,,---,0.00,VWS V12.08,2013-01-10 00:01:00,
2013-01-09 19:06:00,47.8,42.9,30.16,SSW,193,5.4,11.4,83,0.09,,---,0.00,VWS V12.08,2013-01-10 00:06:00,
2013-01-09 19:11:00,47.6,42.7,30.16,West,277,7.9,11.4,83,0.09,,---,0.00,VWS V12.08,2013-01-10 00:11:00,
2013-01-09 19:16:00,47.4,42.5,30.16,SW,218,5.2,11.6,83,0.09,,---,0.00,VWS V12.08,2013-01-10 00:16:00,
2013-01-09 19:21:00,47.6,42.8,30.16,SSW,193,11.9,11.9,83,0.09,,---,0.00,VWS V12.08,2013-01-10 00:21:00,
2013-01-09 19:26:00,47.7,43.0,30.16,SSW,210,6.1,16.8,84,0.09,,---,0.00,VWS V12.08,2013-01-10 00:26:00,
2013-01-09 19:31:00,45.2,45.2,29.96,NNW,339,0.0,8.5,100,0.27,,---,0.27,VWS V12.08,2013-01-10 00:31:00,
2013-01-09 19:36:00,47.4,42.8,30.16,WSW,257,9.9,19.6,84,0.09,,---,0.00,VWS V12.08,2013-01-10 00:36:00,
2013-01-09 19:41:00,47.5,43.0,30.16,West,263,7.8,19.6,84,0.09,,---,0.00,VWS V12.08,2013-01-10 00:41:00,
2013-01-09 19:46:00,47.6,43.1,30.16,SSW,205,8.5,19.6,84,0.09,,---,0.00,VWS V12.08,2013-01-10 00:46:00,
2013-01-09 19:51:00,45.0,45.0,29.97,North,359,6.3,15.2,100,0.53,,---,0.27,VWS V12.08,2013-01-10 00:51:00,
2013-01-09 19:56:00,37.7,35.5,29.32,West,280,6.8,13.3,92,1.03,,---,1.03,VWS V12.08,2013-01-10 00:56:00,
2013-01-09 20:01:00,39.3,39.3,29.46,North,1,10.8,31.8,100,1.39,,---,1.33,VWS V12.08,2013-01-10 01:01:00,
2013-01-09 20:06:00,47.5,43.2,30.16,SSW,198,5.0,19.6,85,0.09,,---,0.00,VWS V12.08,2013-01-10 01:06:00,
2013-01-09 20:11:00,47.4,43.1,30.16,SW,224,4.2,0.0,85,0.09,,---,0.00,VWS V12.08,2013-01-10 01:11:00,
2013-01-09 20:16:00,32.5,32.5,29.58,WNW,300,9.3,17.1,100,0.00,,---,0.00,VWS V12.08,2013-01-10 01:16:00,
2013-01-09 20:21:00,47.5,43.2,30.16,West,260,6.8,19.6,85,0.09,,---,0.00,VWS V12.08,2013-01-10 01:21:00,
2013-01-09 20:26:00,39.8,32.2,30.12,NNW,347,0.0,27.2,74,0.54,,---,0.00,VWS V12.08,2013-01-10 01:26:00,
2013-01-09 20:31:00,45.0,45.0,29.97,North,359,6.3,15.2,100,0.53,,---,0.27,VWS V12.08,2013-01-10 01:31:00,
2013-01-09 20:36:00,34.2,30.1,30.25,South,186,0.0,17.3,85,0.01,,---,0.00,VWS V12.08,2013-01-10 01:36:00,
2013-01-09 20:41:00,47.3,43.0,30.16,WSW,238,0.0,19.6,85,0.09,,---,0.00,VWS V12.08,2013-01-10 01:41:00,
2013-01-09 20:46:00,47.4,43.1,30.16,North,349,9.3,0.0,85,0.09,,---,0.00,VWS V12.08,2013-01-10 01:46:00,
2013-01-09 20:51:00,45.4,40.4,30.17,ENE,68,0.0,0.0,82,0.00,,---,0.00,VWS V12.08,2013-01-10 01:51:00,
2013-01-09 20:56:00,45.2,45.2,29.96,NNW,339,0.0,8.5,100,0.27,,---,0.27,VWS V12.08,2013-01-10 01:56:00,
2013-01-09 21:01:00,49.1,49.0,29.71,East,97,12.7,19.7,100,0.10,,---,0.10,VWS V12.08,2013-01-10 02:01:00,
2013-01-09 21:06:00,38.9,31.6,30.29,WSW,252,5.8,18.4,75,0.04,,---,0.00,VWS V12.08,2013-01-10 02:06:00,
2013-01-09 21:11:00,45.2,45.2,29.96,NNW,339,0.0,8.5,100,0.27,,---,0.27,VWS V12.08,2013-01-10 02:11:00,
2013-01-09 21:16:00,42.3,42.3,29.99,NNW,346,0.0,0.0,100,0.27,,---,0.27,VWS V12.08,2013-01-10 02:16:00,
2013-01-09 21:21:00,36.8,36.8,30.18,North,354,0.0,7.7,100,0.55,,---,0.55,VWS V12.08,2013-01-10 02:21:00,
2013-01-09 21:26:00,35.5,27.2,30.22,West,277,11.2,30.0,71,0.14,,---,0.01,VWS V12.08,2013-01-10 02:26:00,
2013-01-09 21:31:00,44.5,40.9,29.61,West,280,8.8,26.0,87,0.94,,---,0.50,VWS V12.08,2013-01-10 02:31:00,
2013-01-09 21:36:00,34.2,30.1,30.25,South,186,0.0,17.3,85,0.01,,---,0.00,VWS V12.08,2013-01-10 02:36:00,
2013-01-09 21:41:00,36.3,26.9,29.93,WNW,297,4.7,21.4,68,0.00,,---,0.00,VWS V12.08,2013-01-10 02:41:00,
2013-01-09 21:46:00,44.5,40.9,29.61,West,280,8.8,26.0,87,0.94,,---,0.50,VWS V12.08,2013-01-10 02:46:00,
2013-01-09 21:51:00,39.8,32.2,30.12,NNW,347,0.0,27.2,74,0.54,,---,0.00,VWS V12.08,2013-01-10 02:51:00,
2013-01-09 21:56:00,35.2,35.2,29.90,North,350,3.3,8.0,100,0.12,,---,0.12,VWS V12.08,2013-01-10 02:56:00,
2013-01-09 22:01:00,38.5,29.1,29.82,WSW,245,7.9,17.2,69,0.00,,---,0.00,VWS V12.08,2013-01-10 03:01:00,
2013-01-09 22:06:00,39.8,32.2,30.12,NNW,347,0.0,27.2,74,0.54,,---,0.00,VWS V12.08,2013-01-10 03:06:00,
2013-01-09 22:11:00,44.4,40.6,29.62,WSW,239,13.3,18.0,86,0.54,,---,0.50,VWS V12.08,2013-01-10 03:11:00,
2013-01-09 22:16:00,45.2,45.2,29.57,NNE,13,6.3,9.5,100,0.40,,---,0.39,VWS V12.08,2013-01-10 03:16:00,
2013-01-09 22:21:00,34.2,30.1,30.25,South,186,0.0,17.3,85,0.01,,---,0.00,VWS V12.08,2013-01-10 03:21:00,
2013-01-09 22:26:00,47.3,41.2,30.16,WSW,240,9.2,0.0,79,0.09,,---,0.00,VWS V12.08,2013-01-10 03:26:00,
2013-01-09 22:31:00,34.2,30.1,30.25,South,186,0.0,17.3,85,0.01,,---,0.00,VWS V12.08,2013-01-10 03:31:00,
2013-01-09 22:36:00,34.6,30.6,30.25,South,184,5.2,10.0,85,0.00,,---,0.00,VWS V12.08,2013-01-10 03:36:00,
2013-01-09 22:41:00,47.3,47.3,30.23,NW,322,0.0,5.5,100,0.00,,---,0.00,VWS V12.08,2013-01-10 03:41:00,
2013-01-09 22:46:00,37.0,28.2,29.93,SW,224,11.1,11.4,70,0.00,,---,0.00,VWS V12.08,2013-01-10 03:46:00,
2013-01-09 22:51:00,40.7,40.7,30.39,NNW,328,4.3,6.5,100,0.00,,---,0.00,VWS V12.08,2013-01-10 03:51:00,
2013-01-09 22:56:00,39.0,36.7,30.42,North,359,8.8,12.1,91,0.00,,---,0.00,VWS V12.08,2013-01-10 03:56:00,
2013-01-09 23:01:00,49.6,48.3,29.65,SE,124,5.3,15.3,95,0.00,,---,0.00,VWS V12.08,2013-01-10 04:01:00,
2013-01-09 23:06:00,36.8,36.8,30.18,North,354,0.0,7.7,100,0.55,,---,0.55,VWS V12.08,2013-01-10 04:06:00,
2013-01-09 23:11:00,36.9,28.2,29.94,SSW,212,6.6,17.4,70,0.00,,---,0.00,VWS V12.08,2013-01-10 04:11:00,
2013-01-09 23:16:00,49.4,48.1,29.64,SW,214,1.6,8.3,95,0.00,,---,0.00,VWS V12.08,2013-01-10 04:16:00,
2013-01-09 23:21:00,46.1,39.6,30.19,West,259,7.8,0.0,78,0.09,,---,0.00,VWS V12.08,2013-01-10 04:21:00,
2013-01-09 23:26:00,40.2,35.9,30.60,North,353,5.0,16.1,84,0.00,,---,0.00,VWS V12.08,2013-01-10 04:26:00,
2013-01-09 23:31:00,37.9,30.8,29.91,North,354,5.5,10.5,75,0.40,,---,0.40,VWS V12.08,2013-01-10 04:31:00,
2013-01-09 23:36:00,49.7,49.3,30.43,SE,142,0.0,5.6,99,0.00,,---,0.00,VWS V12.08,2013-01-10 04:36:00,
2013-01-09 23:41:00,45.8,39.2,30.19,West,264,6.0,0.0,78,0.09,,---,0.00,VWS V12.08,2013-01-10 04:41:00,
2013-01-09 23:46:00,38.5,31.1,29.91,WNW,298,10.4,25.0,74,0.62,,---,0.40,VWS V12.08,2013-01-10 04:46:00,
2013-01-09 23:51:00,37.1,28.4,30.05,West,260,1.3,13.2,70,0.00,,---,0.00,VWS V12.08,2013-01-10 04:51:00,
2013-01-09 23:56:00,45.7,39.0,30.20,SSW,197,0.0,19.6,77,0.09,,---,0.00,VWS V12.08,2013-01-10 04:56:00,